| time (UTC) | temp C | wind direction | speed KPH | gust KPH | rain 1hr cm | rain 24hr cm | rain mn cm | humidity % | barometer mb |
| 20260904052646 | 27 | 284 | 0.0 | 1.6 | 0.00 | 0.00 | 0.00 | 91 | 1013.2 |
| 20260904052147 | 27 | 343 | 0.0 | 1.6 | 0.00 | 0.00 | 0.00 | 91 | 1013.2 |
| 20260904051646 | 27 | 272 | 0.0 | 3.2 | 0.00 | 0.00 | 0.00 | 91 | 1012.9 |
| 20260904051147 | 27 | 242 | 0.0 | 1.6 | 0.00 | 0.00 | 0.00 | 90 | 1012.9 |
| 20260904050646 | 27 | 224 | 0.0 | 0.0 | 0.00 | 0.00 | 0.00 | 90 | 1012.9 |
| 20260904050146 | 27 | 269 | 0.0 | 1.6 | 0.00 | 0.00 | 0.00 | 90 | 1012.9 |
| 20260904045647 | 27 | 242 | 0.0 | 1.6 | 0.00 | 0.00 | 0.00 | 89 | 1012.9 |
| 20260904045147 | 27 | 215 | 0.0 | 3.2 | 0.00 | 0.00 | 0.00 | 89 | 1012.9 |
| 20260904044646 | 27 | 229 | 1.6 | 3.2 | 0.00 | 0.00 | 0.00 | 88 | 1012.5 |
| 20260904044146 | 27 | 293 | 0.0 | 0.0 | 0.00 | 0.00 | 0.00 | 88 | 1012.9 |
| 20260904043646 | 27 | 263 | 3.2 | 3.2 | 0.00 | 0.00 | 0.00 | 89 | 1012.9 |
| 20260904043147 | 27 | 222 | 3.2 | 4.8 | 0.00 | 0.00 | 0.00 | 88 | 1012.9 |
| 20260904042646 | 27 | 224 | 0.0 | 1.6 | 0.00 | 0.00 | 0.00 | 88 | 1012.5 |
| 20260904042147 | 27 | 230 | 0.0 | 0.0 | 0.00 | 0.00 | 0.00 | 87 | 1012.9 |
| 20260904041646 | 27 | 224 | 0.0 | 1.6 | 0.00 | 0.00 | 0.00 | 87 | 1012.9 |
| 20260904041148 | 27 | 210 | 0.0 | 1.6 | 0.00 | 0.00 | 0.00 | 87 | 1012.9 |
| 20260904040646 | 27 | 141 | 1.6 | 1.6 | 0.00 | 0.00 | 0.00 | 87 | 1012.9 |
| 20260904040149 | 27 | 315 | 0.0 | 1.6 | 0.00 | 0.00 | 0.00 | 87 | 1012.9 |
| 20260904035646 | 27 | 294 | 0.0 | 3.2 | 0.00 | 0.00 | 0.00 | 87 | 1012.9 |
| 20260904035147 | 27 | 255 | 0.0 | 1.6 | 0.00 | 0.00 | 0.00 | 86 | 1012.9 |
| 20260904034646 | 27 | 173 | 0.0 | 1.6 | 0.00 | 0.00 | 0.00 | 86 | 1013.2 |
| 20260904034146 | 27 | 160 | 3.2 | 3.2 | 0.00 | 0.00 | 0.00 | 86 | 1012.9 |
| 20260904033646 | 27 | 142 | 0.0 | 0.0 | 0.00 | 0.00 | 0.00 | 86 | 1013.2 |
| 20260904033146 | 27 | 224 | 0.0 | 1.6 | 0.00 | 0.00 | 0.00 | 86 | 1013.2 |
| 20260904032646 | 28 | 210 | 0.0 | 1.6 | 0.00 | 0.00 | 0.00 | 86 | 1013.2 |
| 20260904032149 | 27 | 197 | 1.6 | 3.2 | 0.00 | 0.00 | 0.00 | 86 | 1013.2 |
| 20260904031647 | 28 | 195 | 1.6 | 3.2 | 0.00 | 0.00 | 0.00 | 86 | 1013.2 |
| 20260904031146 | 28 | 215 | 0.0 | 1.6 | 0.00 | 0.00 | 0.00 | 86 | 1013.2 |
| 20260904030646 | 28 | 186 | 1.6 | 3.2 | 0.00 | 0.00 | 0.00 | 86 | 1013.5 |
| 20260904030147 | 28 | 173 | 3.2 | 4.8 | 0.00 | 0.00 | 0.00 | 85 | 1013.5 |
| 20260904025647 | 28 | 138 | 3.2 | 4.8 | 0.00 | 0.00 | 0.00 | 85 | 1013.5 |
| 20260904025146 | 28 | 117 | 0.0 | 6.4 | 0.00 | 0.00 | 0.00 | 85 | 1013.5 |
| 20260904024647 | 28 | 176 | 3.2 | 4.8 | 0.00 | 0.00 | 0.00 | 85 | 1013.5 |
| 20260904024147 | 28 | 180 | 1.6 | 3.2 | 0.00 | 0.00 | 0.00 | 85 | 1013.5 |
| 20260904023647 | 28 | 204 | 3.2 | 6.4 | 0.00 | 0.00 | 0.00 | 85 | 1013.5 |
| 20260904023147 | 28 | 164 | 3.2 | 3.2 | 0.00 | 0.00 | 0.00 | 84 | 1013.5 |
| 20260904022646 | 28 | 139 | 3.2 | 4.8 | 0.00 | 0.00 | 0.00 | 84 | 1013.5 |
| 20260904022147 | 28 | 155 | 3.2 | 4.8 | 0.00 | 0.00 | 0.00 | 84 | 1013.5 |
| 20260904021646 | 28 | 118 | 3.2 | 4.8 | 0.00 | 0.00 | 0.00 | 84 | 1013.5 |
| 20260904021146 | 28 | 160 | 4.8 | 4.8 | 0.00 | 0.00 | 0.00 | 84 | 1013.5 |
| 20260904020647 | 28 | 161 | 3.2 | 4.8 | 0.00 | 0.00 | 0.00 | 84 | 1013.5 |
| 20260904020146 | 28 | 140 | 1.6 | 4.8 | 0.00 | 0.00 | 0.00 | 84 | 1013.5 |
| 20260904015647 | 28 | 156 | 3.2 | 4.8 | 0.00 | 0.00 | 0.00 | 83 | 1013.5 |
| 20260904015146 | 28 | 163 | 3.2 | 4.8 | 0.00 | 0.00 | 0.00 | 83 | 1013.5 |
| 20260904014647 | 28 | 161 | 4.8 | 4.8 | 0.00 | 0.00 | 0.00 | 83 | 1013.2 |
| 20260904014147 | 28 | 176 | 3.2 | 4.8 | 0.00 | 0.00 | 0.00 | 83 | 1013.2 |
| 20260904013646 | 28 | 163 | 3.2 | 4.8 | 0.00 | 0.00 | 0.00 | 83 | 1013.2 |
| 20260904013148 | 28 | 158 | 4.8 | 4.8 | 0.00 | 0.00 | 0.00 | 82 | 1013.2 |
| 20260904012646 | 28 | 154 | 3.2 | 6.4 | 0.00 | 0.00 | 0.00 | 82 | 1013.2 |
| 20260904012146 | 28 | 145 | 4.8 | 6.4 | 0.00 | 0.00 | 0.00 | 83 | 1012.9 |
| 20260904011646 | 28 | 161 | 4.8 | 6.4 | 0.00 | 0.00 | 0.00 | 83 | 1013.2 |
| 20260904011146 | 28 | 164 | 4.8 | 4.8 | 0.00 | 0.00 | 0.00 | 83 | 1013.2 |
| 20260904010647 | 28 | 183 | 6.4 | 6.4 | 0.00 | 0.00 | 0.00 | 82 | 1013.2 |
| 20260904010147 | 28 | 167 | 4.8 | 6.4 | 0.00 | 0.00 | 0.00 | 82 | 1013.2 |
| 20260904005646 | 28 | 155 | 6.4 | 8.0 | 0.00 | 0.00 | 0.00 | 81 | 1013.2 |
| 20260904005146 | 28 | 173 | 3.2 | 8.0 | 0.00 | 0.00 | 0.00 | 81 | 1013.2 |
| 20260904004646 | 28 | 172 | 8.0 | 8.0 | 0.00 | 0.00 | 0.00 | 82 | 1013.2 |
| 20260904004147 | 29 | 168 | 8.0 | 9.7 | 0.00 | 0.00 | 0.00 | 81 | 1013.2 |
| 20260904003646 | 29 | 182 | 8.0 | 11.3 | 0.00 | 0.00 | 0.00 | 81 | 1013.5 |
| 20260904003146 | 29 | 186 | 8.0 | 9.7 | 0.00 | 0.00 | 0.00 | 81 | 1013.2 |
| 20260904002646 | 29 | 168 | 6.4 | 9.7 | 0.00 | 0.00 | 0.00 | 80 | 1013.2 |
| 20260904002146 | 29 | 191 | 4.8 | 8.0 | 0.00 | 0.00 | 0.00 | 80 | 1013.2 |
| 20260904001646 | 29 | 162 | 4.8 | 8.0 | 0.00 | 0.00 | 0.00 | 80 | 1013.2 |
| 20260904001146 | 29 | 167 | 4.8 | 9.7 | 0.00 | 0.00 | 0.00 | 79 | 1013.2 |
| 20260904000647 | 30 | 166 | 6.4 | 8.0 | 0.00 | 0.00 | 0.00 | 79 | 1012.9 |
| 20260904000146 | 30 | 155 | 3.2 | 8.0 | 0.00 | 0.00 | 0.00 | 78 | 1013.2 |
| 20260903235646 | 30 | 180 | 6.4 | 9.7 | 0.00 | 0.00 | 0.00 | 78 | 1013.2 |
| 20260903235146 | 30 | 162 | 8.0 | 12.9 | 0.00 | 0.00 | 0.00 | 78 | 1013.2 |
| 20260903234646 | 30 | 162 | 6.4 | 8.0 | 0.00 | 0.00 | 0.00 | 78 | 1013.2 |
| 20260903234146 | 30 | 176 | 6.4 | 11.3 | 0.00 | 0.00 | 0.00 | 77 | 1013.2 |
| 20260903233646 | 30 | 169 | 8.0 | 11.3 | 0.00 | 0.00 | 0.00 | 77 | 1013.2 |
| 20260903233147 | 30 | 184 | 8.0 | 9.7 | 0.00 | 0.00 | 0.00 | 77 | 1013.2 |
| 20260903232646 | 30 | 176 | 8.0 | 12.9 | 0.00 | 0.00 | 0.00 | 76 | 1012.9 |
| 20260903232146 | 30 | 152 | 4.8 | 9.7 | 0.00 | 0.00 | 0.00 | 76 | 1012.9 |
| 20260903231646 | 30 | 169 | 11.3 | 14.5 | 0.00 | 0.00 | 0.00 | 75 | 1012.9 |
| 20260903231146 | 30 | 181 | 9.7 | 9.7 | 0.00 | 0.00 | 0.00 | 76 | 1012.9 |
| 20260903230648 | 30 | 184 | 8.0 | 12.9 | 0.00 | 0.00 | 0.00 | 76 | 1012.9 |
| 20260903230150 | 30 | 190 | 9.7 | 17.7 | 0.00 | 0.00 | 0.00 | 76 | 1012.5 |
| 20260903225647 | 30 | 161 | 12.9 | 17.7 | 0.00 | 0.00 | 0.00 | 77 | 1012.9 |
| 20260903225146 | 30 | 174 | 9.7 | 17.7 | 0.00 | 0.00 | 0.00 | 76 | 1012.5 |
| 20260903224646 | 30 | 167 | 14.5 | 19.3 | 0.00 | 0.00 | 0.00 | 75 | 1012.9 |
| 20260903224149 | 30 | 167 | 14.5 | 22.5 | 0.00 | 0.00 | 0.00 | 75 | 1012.9 |
| 20260903223647 | 31 | 175 | 9.7 | 14.5 | 0.00 | 0.00 | 0.00 | 73 | 1012.9 |
| 20260903223146 | 31 | 164 | 8.0 | 11.3 | 0.00 | 0.00 | 0.00 | 72 | 1012.9 |
| 20260903222646 | 31 | 166 | 6.4 | 9.7 | 0.00 | 0.00 | 0.00 | 73 | 1012.5 |
| 20260903222146 | 31 | 165 | 12.9 | 14.5 | 0.00 | 0.00 | 0.00 | 71 | 1012.9 |
| 20260903221646 | 31 | 171 | 6.4 | 14.5 | 0.00 | 0.00 | 0.00 | 70 | 1012.5 |
| 20260903221147 | 31 | 158 | 8.0 | 16.1 | 0.00 | 0.00 | 0.00 | 69 | 1012.9 |
| 20260903220647 | 31 | 167 | 12.9 | 12.9 | 0.00 | 0.00 | 0.00 | 69 | 1012.9 |
| 20260903220147 | 31 | 160 | 8.0 | 14.5 | 0.00 | 0.00 | 0.00 | 69 | 1012.9 |
| 20260903215647 | 31 | 176 | 4.8 | 9.7 | 0.00 | 0.00 | 0.00 | 69 | 1012.9 |
| 20260903215146 | 31 | 173 | 9.7 | 11.3 | 0.00 | 0.00 | 0.00 | 69 | 1012.9 |
| 20260903214647 | 31 | 163 | 9.7 | 16.1 | 0.00 | 0.00 | 0.00 | 68 | 1012.9 |
| 20260903214146 | 31 | 178 | 8.0 | 11.3 | 0.00 | 0.00 | 0.00 | 69 | 1012.9 |
| 20260903213648 | 31 | 173 | 4.8 | 9.7 | 0.00 | 0.00 | 0.00 | 72 | 1012.9 |
| 20260903213147 | 31 | 161 | 11.3 | 11.3 | 0.00 | 0.00 | 0.00 | 73 | 1013.2 |
| 20260903212647 | 31 | 171 | 6.4 | 9.7 | 0.00 | 0.00 | 0.00 | 74 | 1013.2 |
| 20260903212150 | 31 | 173 | 16.1 | 16.1 | 0.00 | 0.00 | 0.00 | 74 | 1012.9 |
| 20260903211646 | 31 | 180 | 8.0 | 12.9 | 0.00 | 0.00 | 0.00 | 74 | 1012.9 |
| 20260903211147 | 30 | 180 | 4.8 | 8.0 | 0.00 | 0.00 | 0.00 | 77 | 1012.9 |
| 20260903210646 | 30 | 179 | 8.0 | 12.9 | 0.00 | 0.00 | 0.00 | 77 | 1012.9 |
| 20260903210149 | 30 | 204 | 6.4 | 12.9 | 0.00 | 0.00 | 0.00 | 77 | 1012.9 |
| 20260903205646 | 30 | 231 | 6.4 | 14.5 | 0.00 | 0.00 | 0.00 | 78 | 1013.2 |
| 20260903205147 | 30 | 173 | 8.0 | 14.5 | 0.00 | 0.00 | 0.00 | 78 | 1012.9 |
| 20260903204646 | 30 | 264 | 6.4 | 16.1 | 0.00 | 0.00 | 0.00 | 77 | 1012.9 |
| 20260903204148 | 30 | 227 | 11.3 | 11.3 | 0.00 | 0.00 | 0.00 | 78 | 1013.2 |
| 20260903203647 | 30 | 228 | 9.7 | 14.5 | 0.00 | 0.00 | 0.00 | 77 | 1012.9 |
| 20260903203146 | 30 | 238 | 4.8 | 14.5 | 0.00 | 0.00 | 0.00 | 76 | 1012.9 |
| 20260903202646 | 30 | 212 | 12.9 | 19.3 | 0.00 | 0.00 | 0.00 | 76 | 1013.2 |
| 20260903202146 | 31 | 196 | 14.5 | 20.9 | 0.00 | 0.00 | 0.00 | 75 | 1013.2 |
| 20260903201647 | 31 | 238 | 12.9 | 14.5 | 0.00 | 0.00 | 0.00 | 74 | 1013.2 |
| 20260903201148 | 31 | 218 | 8.0 | 12.9 | 0.00 | 0.00 | 0.00 | 74 | 1013.2 |
| 20260903200647 | 31 | 197 | 11.3 | 14.5 | 0.00 | 0.00 | 0.00 | 72 | 1013.5 |
| 20260903200147 | 31 | 190 | 11.3 | 12.9 | 0.00 | 0.00 | 0.00 | 71 | 1013.5 |
| 20260903195646 | 31 | 251 | 9.7 | 11.3 | 0.00 | 0.00 | 0.00 | 72 | 1013.2 |
| 20260903195146 | 31 | 187 | 6.4 | 11.3 | 0.00 | 0.00 | 0.00 | 72 | 1013.5 |
| 20260903194647 | 31 | 205 | 6.4 | 9.7 | 0.00 | 0.00 | 0.00 | 72 | 1013.5 |
| 20260903194147 | 30 | 255 | 8.0 | 14.5 | 0.00 | 0.00 | 0.00 | 72 | 1013.5 |
| 20260903193646 | 30 | 269 | 6.4 | 14.5 | 0.00 | 0.00 | 0.00 | 73 | 1013.5 |
| 20260903193146 | 30 | 232 | 8.0 | 17.7 | 0.00 | 0.00 | 0.00 | 75 | 1013.5 |
| 20260903192646 | 30 | 235 | 9.7 | 17.7 | 0.00 | 0.00 | 0.00 | 76 | 1013.5 |
| 20260903192146 | 30 | 224 | 11.3 | 14.5 | 0.00 | 0.00 | 0.00 | 76 | 1013.5 |
| 20260903191647 | 30 | 214 | 8.0 | 16.1 | 0.00 | 0.00 | 0.00 | 77 | 1013.5 |
| 20260903191147 | 30 | 247 | 8.0 | 16.1 | 0.00 | 0.00 | 0.00 | 76 | 1014.2 |
| 20260903190646 | 31 | 226 | 8.0 | 11.3 | 0.00 | 0.00 | 0.00 | 74 | 1013.9 |
| 20260903190147 | 30 | 209 | 6.4 | 9.7 | 0.00 | 0.00 | 0.00 | 76 | 1014.2 |
| 20260903185647 | 30 | 227 | 9.7 | 11.3 | 0.00 | 0.00 | 0.00 | 74 | 1014.2 |
| 20260903185147 | 30 | 194 | 6.4 | 11.3 | 0.00 | 0.00 | 0.00 | 73 | 1014.2 |
| 20260903184648 | 30 | 243 | 9.7 | 11.3 | 0.00 | 0.00 | 0.00 | 74 | 1014.2 |
| 20260903184147 | 30 | 184 | 4.8 | 9.7 | 0.00 | 0.00 | 0.00 | 75 | 1014.2 |
| 20260903183646 | 30 | 224 | 0.0 | 6.4 | 0.00 | 0.00 | 0.00 | 74 | 1013.9 |
| 20260903183146 | 31 | 165 | 11.3 | 12.9 | 0.00 | 0.00 | 0.00 | 71 | 1014.2 |
| 20260903182647 | 32 | 75 | 1.6 | 9.7 | 0.00 | 0.00 | 0.00 | 67 | 1014.2 |
| 20260903182147 | 32 | 42 | 3.2 | 6.4 | 0.00 | 0.00 | 0.00 | 67 | 1014.6 |
| 20260903181646 | 31 | 156 | 6.4 | 6.4 | 0.00 | 0.00 | 0.00 | 67 | 1014.6 |
| 20260903181147 | 31 | 75 | 4.8 | 6.4 | 0.00 | 0.00 | 0.00 | 68 | 1014.2 |
| 20260903180647 | 31 | 34 | 3.2 | 4.8 | 0.00 | 0.00 | 0.00 | 71 | 1014.2 |
| 20260903180146 | 31 | 302 | 4.8 | 8.0 | 0.00 | 0.00 | 0.00 | 70 | 1014.2 |
| 20260903175646 | 32 | 63 | 6.4 | 12.9 | 0.00 | 0.00 | 0.00 | 69 | 1014.6 |
| 20260903175148 | 31 | 52 | 9.7 | 11.3 | 0.00 | 0.00 | 0.00 | 70 | 1014.6 |
| 20260903174646 | 31 | 41 | 6.4 | 12.9 | 0.00 | 0.00 | 0.00 | 71 | 1014.6 |
| 20260903174147 | 31 | 4 | 6.4 | 8.0 | 0.00 | 0.00 | 0.00 | 71 | 1014.6 |
| 20260903173646 | 31 | 17 | 3.2 | 8.0 | 0.00 | 0.00 | 0.00 | 71 | 1014.6 |
| 20260903173146 | 31 | 39 | 3.2 | 17.7 | 0.00 | 0.00 | 0.00 | 72 | 1014.6 |
| 20260903172647 | 31 | 25 | 8.0 | 12.9 | 0.00 | 0.00 | 0.00 | 72 | 1014.9 |
| 20260903172147 | 31 | 42 | 9.7 | 9.7 | 0.00 | 0.00 | 0.00 | 71 | 1014.9 |
| 20260903171649 | 31 | 355 | 8.0 | 11.3 | 0.00 | 0.00 | 0.00 | 71 | 1015.2 |
| 20260903171147 | 31 | 21 | 0.0 | 9.7 | 0.00 | 0.00 | 0.00 | 72 | 1015.2 |
| 20260903170647 | 31 | 360 | 4.8 | 14.5 | 0.00 | 0.00 | 0.00 | 72 | 1015.2 |
| 20260903170146 | 31 | 60 | 1.6 | 11.3 | 0.00 | 0.00 | 0.00 | 72 | 1015.2 |
| 20260903165646 | 31 | 30 | 9.7 | 11.3 | 0.00 | 0.00 | 0.00 | 72 | 1015.2 |
| 20260903165146 | 31 | 4 | 6.4 | 8.0 | 0.00 | 0.00 | 0.00 | 72 | 1015.2 |
| 20260903164646 | 31 | 352 | 11.3 | 12.9 | 0.00 | 0.00 | 0.00 | 73 | 1015.2 |
| 20260903164147 | 31 | 338 | 4.8 | 11.3 | 0.00 | 0.00 | 0.00 | 74 | 1015.2 |
| 20260903163646 | 31 | 357 | 8.0 | 14.5 | 0.00 | 0.00 | 0.00 | 73 | 1015.6 |
| 20260903163147 | 31 | 338 | 6.4 | 11.3 | 0.00 | 0.00 | 0.00 | 73 | 1015.2 |
| 20260903162647 | 31 | 24 | 6.4 | 12.9 | 0.00 | 0.00 | 0.00 | 73 | 1015.2 |
| 20260903162148 | 31 | 47 | 4.8 | 12.9 | 0.00 | 0.00 | 0.00 | 73 | 1015.2 |
| 20260903161648 | 31 | 26 | 4.8 | 14.5 | 0.00 | 0.00 | 0.00 | 74 | 1015.6 |
| 20260903161147 | 31 | 325 | 1.6 | 11.3 | 0.00 | 0.00 | 0.00 | 75 | 1015.2 |
| 20260903160647 | 31 | 360 | 9.7 | 17.7 | 0.00 | 0.00 | 0.00 | 74 | 1015.2 |
| 20260903160149 | 31 | 1 | 3.2 | 12.9 | 0.00 | 0.00 | 0.00 | 74 | 1015.2 |
| 20260903155647 | 30 | 328 | 9.7 | 12.9 | 0.00 | 0.00 | 0.00 | 76 | 1015.6 |
| 20260903155147 | 30 | 360 | 6.4 | 9.7 | 0.00 | 0.00 | 0.00 | 77 | 1015.2 |
| 20260903154647 | 30 | 1 | 6.4 | 9.7 | 0.00 | 0.00 | 0.00 | 78 | 1015.2 |
| 20260903154147 | 30 | 62 | 4.8 | 14.5 | 0.00 | 0.00 | 0.00 | 78 | 1015.2 |
| 20260903153647 | 30 | 47 | 6.4 | 12.9 | 0.00 | 0.00 | 0.00 | 77 | 1015.2 |
| 20260903153147 | 30 | 354 | 3.2 | 9.7 | 0.00 | 0.00 | 0.00 | 78 | 1015.2 |
| 20260903152647 | 30 | 25 | 4.8 | 11.3 | 0.00 | 0.00 | 0.00 | 78 | 1015.2 |
| 20260903152146 | 30 | 18 | 12.9 | 12.9 | 0.00 | 0.00 | 0.00 | 77 | 1015.2 |
| 20260903151647 | 30 | 353 | 4.8 | 11.3 | 0.00 | 0.00 | 0.00 | 76 | 1014.9 |
| 20260903151146 | 31 | 346 | 4.8 | 11.3 | 0.00 | 0.00 | 0.00 | 76 | 1014.9 |
| 20260903150648 | 31 | 51 | 6.4 | 9.7 | 0.00 | 0.00 | 0.00 | 69 | 1015.2 |
| 20260903150146 | 31 | 70 | 9.7 | 12.9 | 0.00 | 0.00 | 0.00 | 66 | 1015.2 |
| 20260903145646 | 31 | 29 | 1.6 | 6.4 | 0.00 | 0.00 | 0.00 | 67 | 1015.2 |
| 20260903145148 | 31 | 227 | 3.2 | 6.4 | 0.00 | 0.00 | 0.00 | 70 | 1014.9 |
| 20260903144648 | 31 | 344 | 6.4 | 9.7 | 0.00 | 0.00 | 0.00 | 68 | 1014.9 |
| 20260903144148 | 31 | 302 | 3.2 | 4.8 | 0.00 | 0.00 | 0.00 | 73 | 1014.9 |
| 20260903143650 | 30 | 318 | 3.2 | 8.0 | 0.00 | 0.00 | 0.00 | 74 | 1015.2 |
| 20260903143147 | 30 | 317 | 4.8 | 6.4 | 0.00 | 0.00 | 0.00 | 72 | 1015.2 |
| 20260903142647 | 30 | 51 | 12.9 | 14.5 | 0.00 | 0.00 | 0.00 | 71 | 1015.2 |
| 20260903142147 | 30 | 357 | 3.2 | 12.9 | 0.00 | 0.00 | 0.00 | 74 | 1015.2 |
| 20260903141646 | 30 | 47 | 8.0 | 8.0 | 0.00 | 0.00 | 0.00 | 74 | 1015.2 |
| 20260903141147 | 30 | 75 | 4.8 | 8.0 | 0.00 | 0.00 | 0.00 | 74 | 1015.2 |
| 20260903140647 | 30 | 2 | 6.4 | 8.0 | 0.00 | 0.00 | 0.00 | 74 | 1015.2 |
| 20260903140147 | 30 | 357 | 3.2 | 8.0 | 0.00 | 0.00 | 0.00 | 75 | 1015.2 |
| 20260903135647 | 30 | 347 | 4.8 | 6.4 | 0.00 | 0.00 | 0.00 | 74 | 1015.2 |
| 20260903135147 | 30 | 324 | 0.0 | 6.4 | 0.00 | 0.00 | 0.00 | 75 | 1015.2 |
| 20260903134646 | 30 | 329 | 6.4 | 8.0 | 0.00 | 0.00 | 0.00 | 74 | 1015.2 |
| 20260903134147 | 30 | 53 | 3.2 | 6.4 | 0.00 | 0.00 | 0.00 | 75 | 1015.2 |
| 20260903133649 | 30 | 81 | 4.8 | 6.4 | 0.00 | 0.00 | 0.00 | 75 | 1015.2 |
| 20260903133147 | 30 | 51 | 4.8 | 8.0 | 0.00 | 0.00 | 0.00 | 76 | 1015.2 |
| 20260903132647 | 30 | 330 | 1.6 | 4.8 | 0.00 | 0.00 | 0.00 | 78 | 1015.2 |
| 20260903132147 | 30 | 331 | 3.2 | 4.8 | 0.00 | 0.00 | 0.00 | 79 | 1015.2 |
| 20260903131647 | 30 | 62 | 3.2 | 6.4 | 0.00 | 0.00 | 0.00 | 77 | 1015.2 |
| 20260903131147 | 30 | 310 | 0.0 | 1.6 | 0.00 | 0.00 | 0.00 | 78 | 1015.2 |
| 20260903130646 | 30 | 92 | 1.6 | 4.8 | 0.00 | 0.00 | 0.00 | 77 | 1015.2 |
| 20260903130147 | 30 | 262 | 0.0 | 3.2 | 0.00 | 0.00 | 0.00 | 79 | 1015.2 |
| 20260903125647 | 29 | 350 | 1.6 | 4.8 | 0.00 | 0.00 | 0.00 | 82 | 1015.2 |
| 20260903125146 | 28 | 325 | 1.6 | 4.8 | 0.00 | 0.00 | 0.00 | 85 | 1015.2 |
| 20260903124647 | 28 | 46 | 1.6 | 4.8 | 0.00 | 0.00 | 0.00 | 86 | 1014.9 |
| 20260903124146 | 28 | 300 | 1.6 | 3.2 | 0.00 | 0.00 | 0.00 | 87 | 1015.2 |
| 20260903123647 | 28 | 181 | 3.2 | 4.8 | 0.00 | 0.00 | 0.00 | 88 | 1015.2 |
| 20260903123149 | 27 | 105 | 0.0 | 4.8 | 0.00 | 0.00 | 0.00 | 90 | 1015.2 |
| 20260903122647 | 27 | 269 | 0.0 | 4.8 | 0.00 | 0.00 | 0.00 | 93 | 1015.2 |
| 20260903122147 | 26 | 323 | 1.6 | 4.8 | 0.00 | 0.00 | 0.00 | 95 | 1014.9 |
| 20260903121650 | 26 | 182 | 3.2 | 4.8 | 0.00 | 0.00 | 0.00 | 95 | 1015.2 |
| 20260903121146 | 26 | 187 | 3.2 | 4.8 | 0.00 | 0.00 | 0.00 | 96 | 1014.9 |
| 20260903120647 | 26 | 169 | 0.0 | 4.8 | 0.00 | 0.00 | 0.00 | 96 | 1014.9 |
| 20260903120147 | 26 | 269 | 0.0 | 4.8 | 0.00 | 0.00 | 0.00 | 97 | 1015.2 |
| 20260903115646 | 25 | 272 | 1.6 | 4.8 | 0.00 | 0.00 | 0.00 | 97 | 1014.9 |
| 20260903115146 | 25 | 132 | 3.2 | 4.8 | 0.00 | 0.00 | 0.00 | 97 | 1014.9 |
| 20260903114646 | 25 | 323 | 3.2 | 6.4 | 0.00 | 0.00 | 0.00 | 97 | 1014.9 |
| 20260903114149 | 25 | 84 | 3.2 | 4.8 | 0.00 | 0.00 | 0.00 | 97 | 1014.9 |
| 20260903113650 | 25 | 276 | 3.2 | 4.8 | 0.00 | 0.00 | 0.00 | 97 | 1014.9 |
| 20260903113147 | 25 | 30 | 1.6 | 4.8 | 0.00 | 0.00 | 0.00 | 97 | 1014.6 |
| 20260903112648 | 25 | 196 | 1.6 | 4.8 | 0.00 | 0.00 | 0.00 | 97 | 1014.6 |
| 20260903112147 | 25 | 271 | 1.6 | 3.2 | 0.00 | 0.00 | 0.00 | 96 | 1014.6 |
| 20260903111646 | 26 | 173 | 0.0 | 4.8 | 0.00 | 0.00 | 0.00 | 96 | 1014.2 |
| 20260903111149 | 26 | 227 | 0.0 | 3.2 | 0.00 | 0.00 | 0.00 | 96 | 1014.2 |
| 20260903110647 | 26 | 304 | 0.0 | 3.2 | 0.00 | 0.00 | 0.00 | 96 | 1014.2 |
| 20260903110146 | 26 | 315 | 0.0 | 1.6 | 0.00 | 0.00 | 0.00 | 96 | 1014.2 |
| 20260903105647 | 26 | 224 | 0.0 | 0.0 | 0.00 | 0.00 | 0.00 | 96 | 1014.2 |
| 20260903105146 | 26 | 245 | 1.6 | 1.6 | 0.00 | 0.00 | 0.00 | 96 | 1014.2 |
| 20260903104648 | 26 | 241 | 0.0 | 1.6 | 0.00 | 0.00 | 0.00 | 96 | 1014.2 |
| 20260903104146 | 26 | 242 | 1.6 | 1.6 | 0.00 | 0.00 | 0.00 | 95 | 1014.2 |
| 20260903103648 | 26 | 165 | 0.0 | 1.6 | 0.00 | 0.00 | 0.00 | 95 | 1014.2 |
| 20260903103148 | 26 | 224 | 1.6 | 1.6 | 0.00 | 0.00 | 0.00 | 95 | 1014.2 |
| 20260903102647 | 26 | 225 | 0.0 | 1.6 | 0.00 | 0.00 | 0.00 | 94 | 1014.2 |
| 20260903102146 | 26 | 230 | 1.6 | 3.2 | 0.00 | 0.00 | 0.00 | 93 | 1014.2 |
| 20260903101647 | 26 | 322 | 0.0 | 3.2 | 0.00 | 0.00 | 0.00 | 93 | 1014.2 |
| 20260903101147 | 26 | 31 | 0.0 | 3.2 | 0.00 | 0.00 | 0.00 | 93 | 1014.2 |
| 20260903100647 | 26 | 66 | 0.0 | 3.2 | 0.00 | 0.00 | 0.00 | 93 | 1014.2 |
| 20260903100146 | 26 | 58 | 3.2 | 4.8 | 0.00 | 0.00 | 0.00 | 94 | 1013.9 |
| 20260903095646 | 26 | 55 | 0.0 | 4.8 | 0.00 | 0.00 | 0.00 | 95 | 1014.2 |
| 20260903095146 | 26 | 76 | 0.0 | 1.6 | 0.00 | 0.00 | 0.00 | 95 | 1013.9 |
| 20260903094646 | 26 | 65 | 0.0 | 3.2 | 0.00 | 0.00 | 0.00 | 96 | 1013.9 |
| 20260903094146 | 26 | 123 | 0.0 | 1.6 | 0.00 | 0.00 | 0.00 | 97 | 1013.9 |
| 20260903093649 | 26 | 135 | 0.0 | 0.0 | 0.00 | 0.00 | 0.00 | 96 | 1013.9 |
| 20260903093147 | 26 | 217 | 0.0 | 1.6 | 0.00 | 0.00 | 0.00 | 97 | 1013.9 |
| 20260903092646 | 26 | 176 | 1.6 | 3.2 | 0.00 | 0.00 | 0.00 | 97 | 1013.9 |
| 20260903092146 | 26 | 137 | 0.0 | 3.2 | 0.00 | 0.00 | 0.00 | 97 | 1013.9 |
| 20260903091646 | 26 | 104 | 0.0 | 3.2 | 0.00 | 0.00 | 0.00 | 98 | 1013.9 |
| 20260903091155 | 26 | 224 | 0.0 | 1.6 | 0.00 | 0.00 | 0.00 | 97 | 1013.9 |
| 20260903090649 | 26 | 217 | 1.6 | 3.2 | 0.00 | 0.00 | 0.00 | 98 | 1014.2 |
| 20260903090147 | 26 | 202 | 0.0 | 1.6 | 0.00 | 0.00 | 0.00 | 97 | 1013.9 |
| 20260903085647 | 26 | 224 | 0.0 | 1.6 | 0.00 | 0.00 | 0.00 | 97 | 1013.9 |
| 20260903085147 | 26 | 246 | 0.0 | 1.6 | 0.00 | 0.00 | 0.00 | 97 | 1013.9 |
| 20260903084646 | 26 | 227 | 0.0 | 0.0 | 0.00 | 0.00 | 0.00 | 97 | 1014.2 |
| 20260903084146 | 26 | 230 | 0.0 | 1.6 | 0.00 | 0.00 | 0.00 | 97 | 1013.9 |
| 20260903083647 | 26 | 242 | 0.0 | 1.6 | 0.00 | 0.00 | 0.00 | 97 | 1013.9 |
| 20260903083146 | 26 | 129 | 0.0 | 0.0 | 0.00 | 0.00 | 0.00 | 97 | 1013.9 |
| 20260903082647 | 26 | 169 | 0.0 | 0.0 | 0.00 | 0.00 | 0.00 | 97 | 1013.9 |
| 20260903082146 | 26 | 44 | 0.0 | 0.0 | 0.00 | 0.00 | 0.00 | 97 | 1013.9 |
| 20260903081647 | 26 | 129 | 0.0 | 0.0 | 0.00 | 0.00 | 0.00 | 96 | 1014.2 |
| 20260903081147 | 26 | 231 | 0.0 | 1.6 | 0.00 | 0.00 | 0.00 | 96 | 1013.9 |
| 20260903080647 | 26 | 242 | 0.0 | 1.6 | 0.00 | 0.00 | 0.00 | 96 | 1013.9 |
| 20260903080147 | 26 | 216 | 1.6 | 3.2 | 0.00 | 0.00 | 0.00 | 96 | 1014.2 |
| 20260903075646 | 26 | 183 | 1.6 | 3.2 | 0.00 | 0.00 | 0.00 | 96 | 1013.9 |
| 20260903075147 | 26 | 246 | 0.0 | 1.6 | 0.00 | 0.00 | 0.00 | 96 | 1014.2 |
| 20260903074654 | 26 | 250 | 1.6 | 3.2 | 0.00 | 0.00 | 0.00 | 96 | 1014.2 |
| 20260903074146 | 26 | 224 | 0.0 | 1.6 | 0.00 | 0.00 | 0.00 | 96 | 1013.9 |
| 20260903073647 | 26 | 279 | 0.0 | 1.6 | 0.00 | 0.00 | 0.00 | 96 | 1014.2 |
| 20260903073148 | 26 | 217 | 0.0 | 0.0 | 0.00 | 0.00 | 0.00 | 95 | 1014.2 |
| 20260903072650 | 26 | 238 | 0.0 | 1.6 | 0.00 | 0.00 | 0.00 | 95 | 1013.9 |
| 20260903072147 | 26 | 227 | 0.0 | 3.2 | 0.00 | 0.00 | 0.00 | 95 | 1014.2 |
| 20260903071647 | 26 | 256 | 0.0 | 1.6 | 0.00 | 0.00 | 0.00 | 95 | 1014.2 |
| 20260903071148 | 26 | 343 | 0.0 | 1.6 | 0.00 | 0.00 | 0.00 | 96 | 1014.2 |
| 20260903070646 | 26 | 315 | 0.0 | 1.6 | 0.00 | 0.00 | 0.00 | 96 | 1014.2 |
| 20260903070148 | 26 | 217 | 0.0 | 3.2 | 0.00 | 0.00 | 0.00 | 96 | 1014.6 |
| 20260903065647 | 26 | 235 | 1.6 | 3.2 | 0.00 | 0.00 | 0.00 | 96 | 1014.6 |
| 20260903065147 | 26 | 205 | 0.0 | 3.2 | 0.00 | 0.00 | 0.00 | 96 | 1014.6 |
| 20260903064646 | 26 | 223 | 1.6 | 3.2 | 0.00 | 0.00 | 0.00 | 96 | 1014.6 |
| 20260903064146 | 26 | 204 | 1.6 | 1.6 | 0.00 | 0.00 | 0.00 | 95 | 1014.6 |
| 20260903063646 | 26 | 220 | 0.0 | 1.6 | 0.00 | 0.00 | 0.00 | 95 | 1014.6 |
| 20260903063146 | 26 | 252 | 0.0 | 1.6 | 0.00 | 0.00 | 0.00 | 95 | 1014.6 |
| 20260903062647 | 26 | 242 | 0.0 | 1.6 | 0.00 | 0.00 | 0.00 | 95 | 1014.6 |
| 20260903062146 | 26 | 222 | 1.6 | 3.2 | 0.00 | 0.00 | 0.00 | 95 | 1014.9 |
| 20260903061648 | 26 | 231 | 1.6 | 3.2 | 0.00 | 0.00 | 0.00 | 95 | 1014.9 |
| 20260903061146 | 26 | 224 | 0.0 | 1.6 | 0.00 | 0.00 | 0.00 | 95 | 1014.9 |
| 20260903060646 | 26 | 259 | 0.0 | 1.6 | 0.00 | 0.00 | 0.00 | 95 | 1014.9 |
| 20260903060152 | 26 | 233 | 0.0 | 0.0 | 0.00 | 0.00 | 0.00 | 95 | 1014.6 |
| 20260903055648 | 26 | 224 | 0.0 | 1.6 | 0.00 | 0.00 | 0.00 | 95 | 1014.9 |
| 20260903055147 | 26 | 247 | 0.0 | 1.6 | 0.00 | 0.00 | 0.00 | 95 | 1014.9 |
| 20260903054646 | 26 | 227 | 0.0 | 3.2 | 0.00 | 0.00 | 0.00 | 96 | 1014.9 |
| 20260903054146 | 26 | 205 | 0.0 | 0.0 | 0.00 | 0.00 | 0.00 | 95 | 1015.2 |
| 20260903053647 | 26 | 293 | 0.0 | 0.0 | 0.00 | 0.00 | 0.00 | 95 | 1014.9 |
| 20260903053147 | 26 | 224 | 0.0 | 1.6 | 0.00 | 0.00 | 0.00 | 95 | 1014.9 |